Location: Unspecified
(0.0000°N, 0.0000°E)
Time: 14:50:09
(UTC+00:00)

Altair - Pass Details

Date: 31 October 2021
Orbit: 1502 x 1682 km, 47.2° (Epoch: 26 November)

Event Time Altitude Azimuth Distance (km) Brightness Sun altitude
Rises 08:13:09 0° 339° (NNW) 4,825 9.8 36.1°
Reaches altitude 10° 08:16:41 10° 348° (NNW) 3,865 9.5 36.9°
Maximum altitude 08:25:22 34° 50° (NE) 2,496 9.4 39.0°
Drops below altitude 10° 08:34:11 10° 110° (ESE) 3,941 10.8 41.0°
Sets 08:37:46 0° 119° (ESE) 4,931 11.0 41.9°
